Newport, AR

9:06 PM CST on November 11, 2019 (GMT -0600)
Newport

Weather History for KM19 - September, 2019

Change the Weather History Date:

Tuesday, September 17, 2019

  Actual Average (WUND) Record (WUND)
Temperature  
Mean Temperature 82 °F -  
Max Temperature 96 °F - - (-1)
Min Temperature 68 °F - - (-1)
Cooling Degree Days 17    
Growing Degree Days 32 (Base 50)    
Moisture  
Dew Point 67 °F    
Average Humidity 66    
Maximum Humidity 97    
Minimum Humidity 32    
Precipitation  
Precipitation 0.00 in - - ()
Sea Level Pressure  
Sea Level Pressure 30.01 in    
Wind  
Wind Speed 4 mph (NNE)    
Max Wind Speed 6 mph    
Max Gust Speed -    
Visibility 10 miles    
Events      
Averages and records for this station are not official NWS values.
T = Trace of Precipitation, MM = Missing Value Source: NWS Daily Summary

Daily Weather History Graph

Daily Weather History Graph

Search for Another Location

Airport or City:

Astronomy

Sep. 17, 2019 Rise Set
Actual Time 6:48 AM CDT 7:09 PM CDT
Civil Twilight 6:23 AM CDT 7:34 PM CDT
Nautical Twilight 5:53 AM CDT 8:04 PM CDT
Astronomical Twilight 5:22 AM CDT 8:34 PM CDT
Moon 9:18 PM CDT (9/17) 9:48 AM CDT (9/17)
Length of Visible Light 13h 11m
Length of Day
12h 20m
Waning Gibbous, 89% of the Moon is Illuminated
Sep 17
Waning Gibbous
Sep 21
Last Quarter
Sep 28
New
Oct 5
First Quarter
Oct 13
Full

Hourly Weather History & Observations

Time (CDT) Temp. Heat Index Dew Point Humidity Pressure Visibility Wind Dir Wind Speed Gust Speed Precip Events Conditions
12:56 AM 73.9 °F - 69.1 °F 85% 30.02 in 10.0 mi WNW 4.6 mph - N/A   Clear
1:56 AM 72.0 °F - 68.0 °F 87% 30.02 in 10.0 mi NNW 3.5 mph - N/A   Clear
2:56 AM 71.1 °F - 68.0 °F 90% 30.01 in 10.0 mi NW 3.5 mph - N/A   Clear
3:56 AM 70.0 °F - 69.1 °F 97% 30.01 in 10.0 mi NNW 5.8 mph - N/A   Clear
4:56 AM 70.0 °F - 66.9 °F 90% 30.02 in 10.0 mi NNW 4.6 mph - N/A   Clear
5:56 AM 68.0 °F - 66.0 °F 93% 30.04 in 10.0 mi NNW 3.5 mph - N/A   Clear
7:56 AM 71.1 °F - 68.0 °F 90% 30.07 in 9.0 mi NW 3.5 mph - N/A   Clear
8:56 AM 75.9 °F - 70.0 °F 82% 30.07 in 10.0 mi NNE 3.5 mph - N/A   Clear
9:56 AM 82.0 °F 85.9 °F 70.0 °F 67% 30.08 in 10.0 mi North 3.5 mph - N/A   Clear
10:56 AM 87.1 °F 91.3 °F 69.1 °F 55% 30.08 in 10.0 mi Calm Calm - N/A   Clear
11:56 AM 89.1 °F 93.7 °F 69.1 °F 52% 30.07 in 10.0 mi ENE 3.5 mph - N/A   Clear
12:56 PM 93.0 °F 97.4 °F 68.0 °F 44% 30.05 in 10.0 mi South 5.8 mph - N/A   Clear
1:56 PM 95.0 °F 99.0 °F 66.9 °F 40% 30.02 in 10.0 mi Variable 3.5 mph - N/A   Clear
2:56 PM 95.0 °F 97.9 °F 66.0 °F 38% 30.00 in 10.0 mi ESE 3.5 mph - N/A   Clear
3:56 PM 96.1 °F 96.9 °F 62.1 °F 32% 29.98 in 10.0 mi ESE 4.6 mph - N/A   Clear
4:56 PM 95.0 °F 96.0 °F 63.0 °F 34% 29.96 in 10.0 mi South 5.8 mph - N/A   Clear
5:56 PM 93.0 °F 95.9 °F 66.0 °F 41% 29.96 in 10.0 mi ESE 4.6 mph - N/A   Clear
6:56 PM 88.0 °F 90.7 °F 66.9 °F 49% 29.95 in 5.0 mi NNE 5.8 mph - N/A   Haze
7:56 PM 82.9 °F 85.4 °F 66.9 °F 58% 29.96 in 9.0 mi East 5.8 mph - N/A   Clear
8:56 PM 78.1 °F - 68.0 °F 71% 29.97 in 10.0 mi Calm Calm - N/A   Clear
9:56 PM 80.1 °F 82.1 °F 66.0 °F 62% 29.98 in 10.0 mi Calm Calm - N/A   Clear
10:56 PM 77.0 °F - 68.0 °F 74% 29.99 in 10.0 mi Calm Calm - N/A   Clear
11:56 PM 73.9 °F - 68.0 °F 82% 29.99 in 10.0 mi Calm Calm - N/A   Clear